This is the latest recevied weather packets stored in our database for station/object KD8JAM. If no packets are shown the sender has not sent any weather packets the latest 10 day(s).
| Time | Temp. | Humidity | Pressure | Rain* | Wind** | Luminosity | Snow |
|---|---|---|---|---|---|---|---|
| 1777944152 | 3.89° C | 88% | 998.8 hPa | 0 mm | - | 0 W/m² | - |
| 1777943848 | 3.89° C | 88% | 998.5 hPa | 0 mm | - | 0 W/m² | - |
| 1777943546 | 3.89° C | 88% | 998.7 hPa | 0 mm | - | 1 W/m² | - |
| 1777943241 | 3.89° C | 88% | 998.4 hPa | 0 mm | - | 3 W/m² | - |
| 1777942937 | 4.44° C | 88% | 998.4 hPa | 0 mm | - | 4 W/m² | - |
| 1777942634 | 4.44° C | 88% | 998.3 hPa | 0 mm | - | 7 W/m² | - |
| 1777942331 | 4.44° C | 87% | 998.4 hPa | 0 mm | - | 9 W/m² | - |
| 1777942028 | 4.44° C | 86% | 998.1 hPa | 0 mm | - | 12 W/m² | - |
| 1777941724 | 4.44° C | 86% | 998.4 hPa | 0 mm | - | 14 W/m² | - |
| 1777941421 | 5° C | 85% | 998.3 hPa | 0 mm | - | 17 W/m² | - |
| 1777941119 | 5° C | 85% | 998.3 hPa | 0 mm | - | 19 W/m² | - |
| 1777940815 | 5° C | 86% | 998 hPa | 0 mm | - | 21 W/m² | - |
| 1777940513 | 4.44° C | 86% | 998.2 hPa | 0 mm | - | 23 W/m² | - |
| 1777940210 | 5° C | 87% | 998.1 hPa | 0 mm | - | 26 W/m² | - |
| 1777939908 | 5° C | 87% | 997.9 hPa | 0 mm | - | 28 W/m² | - |
| 1777939605 | 5° C | 86% | 998 hPa | 0 mm | - | 32 W/m² | - |
| 1777939303 | 5° C | 85% | 998.1 hPa | 0 mm | - | 37 W/m² | - |
| 1777938998 | 5° C | 84% | 997.8 hPa | 0 mm | - | 48 W/m² | - |
| 1777938695 | 5.56° C | 83% | 997.9 hPa | 0 mm | - | 41 W/m² | - |
| 1777938392 | 5.56° C | 83% | 997.6 hPa | 0 mm | - | 50 W/m² | - |
| 1777938090 | 5.56° C | 82% | 997.7 hPa | 0 mm | - | 48 W/m² | - |
| 1777937785 | 5.56° C | 83% | 997.2 hPa | 0 mm | - | 48 W/m² | - |
| 1777937482 | 5.56° C | 81% | 997.5 hPa | 0 mm | - | 45 W/m² | - |
| 1777937179 | 6.11° C | 81% | 997.7 hPa | 0 mm | - | 57 W/m² | - |
| 1777936876 | 6.11° C | 81% | 997.3 hPa | 0 mm | - | 78 W/m² | - |
* Rain latest hour (hover to see other rain measurements)
** Current wind speed in m/s (hover to see current wind gust speed)